Theta_e
286 286 285 285 285 285 285 285 285 285 285 285 285 285 285 285 285 285 285 285 286 285 285 285 285 286 286 285 286 285 286 285 285 285 285 285 286 286 287 287 288 289
286 286 285 285 285 285 285 285 285 285 285 284 285 284 285 285 285 285 285 285 285 285 285 285 285 285 285 285 285 285 285 285 285 285 285 285 285 285 285 285 285 286
286 285 285 285 285 285 285 285 285 285 284 284 284 284 284 284 284 285 284 284 284 284 284 284 284 284 284 284 284 284 284 285 285 285 285 285 285 285 285 285 285 285
285 285 285 285 285 285 285 285 285 285 285 284 284 284 284 284 284 284 284 284 284 284 284 284 284 284 284 284 284 284 284 284 284 284 284 284 284 284 284 284 284 284
285 285 285 284 284 284 284 284 284 284 284 284 284 284 284 284 284 284 284 284 284 284 283 283 283 283 282 282 282 282 282 282 283 282 283 283 283 283 283 283 283 284
285 285 284 284 284 284 283 283 283 283 283 283 283 283 283 283 283 283 283 283 283 283 283 283 283 283 282 282 281 281 281 281 281 281 281 281 282 282 282 282 282 282
285 285 284 284 284 283 283 283 283 283 283 283 283 283 283 283 282 282 282 282 282 282 282 282 283 282 282 282 282 281 281 280 280 280 280 280 280 281 281 281 281 281
285 285 285 284 284 284 283 283 283 283 283 283 283 283 282 282 282 282 281 281 281 281 281 281 281 281 281 280 280 281 281 281 281 280 280 280 280 279 280 280 280 280
285 285 285 285 284 284 283 283 283 283 283 283 283 282 282 282 281 281 281 281 280 280 280 280 280 279 279 279 279 279 279 280 280 280 280 280 280 280 280 280 279 280
286 285 285 285 285 284 283 283 282 282 282 282 282 282 281 281 281 280 280 280 279 279 279 279 278 278 278 277 277 277 277 278 278 278 279 279 279 280 280 280 279 280
286 285 285 285 285 284 283 283 282 282 282 282 281 281 281 281 280 280 279 279 278 278 278 278 277 277 277 277 277 276 276 277 277 277 277 278 278 278 279 279 279 279
285 285 285 285 285 285 284 283 282 282 282 282 281 281 281 280 280 279 279 278 278 278 278 277 277 276 276 276 276 276 276 276 276 277 277 277 278 278 278 278 279 279
285 285 285 285 285 285 285 283 283 282 282 282 281 281 280 280 280 279 279 278 278 278 278 277 276 276 275 275 275 275 276 276 277 277 277 277 278 278 278 278 278 278
285 285 285 285 285 285 284 283 282 282 282 281 281 280 280 279 279 278 278 278 278 278 277 277 276 275 275 274 274 275 276 276 277 277 277 277 277 277 277 277 278 278
285 285 285 285 284 284 283 282 282 281 281 280 280 279 279 278 278 278 278 278 278 278 277 276 275 274 274 274 274 275 276 276 276 276 276 276 276 276 276 277 277 277
285 285 285 284 284 284 283 282 281 281 281 280 280 279 278 278 277 277 277 277 277 277 276 275 274 273 273 273 274 275 275 275 275 275 275 275 275 275 275 275 275 275
285 285 284 284 284 283 282 281 281 281 280 280 280 279 278 278 277 277 276 275 276 276 275 274 273 272 272 272 273 274 274 274 274 274 274 274 274 274 274 274 274 274
285 284 284 284 284 282 281 281 280 280 280 279 279 278 278 278 277 276 275 275 275 274 274 273 272 271 270 271 272 272 273 273 273 273 273 273 273 273 273 273 273 273
284 284 284 284 283 281 281 280 280 280 279 278 278 278 277 277 276 276 275 274 273 273 273 271 270 269 269 270 271 271 272 272 272 272 272 272 272 272 272 272 272 271
284 284 284 283 281 280 280 280 279 279 278 277 277 276 276 276 275 275 274 273 272 271 271 270 269 269 268 269 270 270 271 271 271 271 271 271 271 270 270 270 270 270
284 284 282 281 280 279 279 279 278 278 277 276 276 275 275 274 274 273 272 271 270 269 270 270 269 268 268 268 269 269 270 271 271 270 270 269 269 269 269 269 269 269
283 282 280 279 279 279 278 278 277 276 276 275 275 274 274 273 273 272 271 270 269 268 268 268 268 268 268 268 268 269 270 269 269 269 269 268 268 268 268 268 268 268
281 280 279 278 278 277 277 276 275 275 274 273 273 273 272 272 271 270 269 268 268 267 267 267 267 267 267 267 267 268 268 268 268 268 268 268 268 268 268 268 268 269
279 278 278 277 276 276 275 275 274 273 273 272 271 271 270 270 269 268 267 267 266 266 266 266 267 267 266 266 266 267 268 268 268 268 268 268 268 268 268 268 268 268
278 277 276 275 275 275 274 273 273 272 272 271 270 269 268 268 266 266 266 265 265 266 265 265 266 266 266 265 265 267 267 268 268 268 268 268 268 268 268 268 268 268
276 275 274 274 274 273 273 272 272 271 271 270 269 267 266 266 265 264 264 264 264 265 264 264 265 265 265 265 265 266 268 268 269 269 268 268 268 268 268 268 268 269
Wind_Speed
18 19 19 20 20 20 20 20 20 20 20 20 20 19 18 18 17 17 17 17 17 17 18 18 18 19 19 19 20 20 20 20 19 19 19 19 18 18 18 18 17 17
15 16 16 16 17 17 18 18 18 18 18 18 17 17 17 17 17 17 17 16 16 17 17 17 18 18 18 19 19 19 20 20 20 20 20 19 19 19 19 19 19 18
13 13 14 14 15 15 16 16 17 17 17 17 17 17 17 17 17 17 17 17 17 17 17 18 18 18 19 20 20 20 21 21 22 22 22 21 21 21 21 21 21 20
13 13 13 13 14 14 14 14 15 15 15 15 16 16 17 17 18 18 18 19 19 20 20 20 21 21 21 21 22 22 22 23 23 23 24 24 24 24 24 24 24 24
12 12 12 13 13 13 13 13 13 14 14 14 15 16 16 17 17 18 18 19 20 21 22 23 24 25 26 26 26 26 26 26 25 25 26 27 26 26 26 26 26 27
11 12 12 13 13 12 13 13 14 14 14 15 16 16 16 17 17 18 19 20 21 22 22 24 25 26 28 29 30 30 30 29 28 27 28 29 29 29 29 28 28 28
11 11 12 12 12 12 13 14 14 15 16 16 16 17 18 19 20 21 22 23 23 24 24 25 26 26 28 29 30 31 31 31 31 30 30 30 30 30 30 29 29 29
10 12 13 13 13 13 13 14 14 15 16 16 17 18 20 21 23 24 25 26 26 27 27 28 28 28 29 30 30 31 32 32 33 33 33 33 32 31 31 29 28 29
10 12 14 15 15 15 14 14 15 15 16 17 18 20 21 23 24 26 27 28 28 29 30 30 30 30 29 29 29 30 31 32 32 32 32 33 34 34 34 31 30 30
8 11 13 15 17 17 17 16 16 17 18 19 20 22 24 25 26 27 28 29 30 31 31 31 30 30 29 28 28 28 28 29 30 29 30 31 32 34 35 35 34 34
7 9 11 14 16 18 18 18 18 19 20 21 23 25 26 27 29 29 30 31 31 31 32 31 30 29 29 28 27 26 26 27 27 28 29 30 31 32 33 33 34 36
7 9 11 13 16 18 19 20 20 20 22 23 25 26 28 29 30 31 31 31 32 31 31 31 29 28 28 27 26 25 26 26 27 28 29 29 30 31 31 32 32 34
7 9 11 13 15 18 20 21 21 21 23 24 26 28 29 30 31 31 31 31 32 32 32 31 30 29 28 26 25 25 26 28 29 29 30 30 31 32 32 32 33 33
7 9 11 13 15 18 20 21 21 22 23 25 27 28 29 30 31 31 32 32 32 32 32 31 31 30 27 26 26 27 28 29 30 31 32 33 33 34 34 34 35 35
9 10 12 14 16 19 21 22 22 23 25 27 28 29 29 30 30 30 32 33 33 33 33 32 31 29 27 25 26 27 28 30 32 33 34 35 37 38 38 37 36 36
10 11 13 15 18 21 23 23 24 25 27 29 30 31 31 31 31 30 31 32 33 35 34 33 32 30 28 25 23 25 28 30 33 35 36 37 39 40 41 41 39 39
11 12 14 17 19 22 24 24 25 27 30 31 32 32 32 32 32 31 31 31 33 34 34 34 33 31 29 27 24 24 26 29 33 36 36 36 36 37 39 41 40 39
12 13 15 18 21 23 24 25 27 29 30 32 32 33 33 33 33 32 32 32 32 33 34 33 33 31 29 28 26 25 25 27 30 32 32 32 31 32 33 33 33 32
13 15 17 20 22 24 25 26 28 29 30 31 32 32 32 33 32 32 32 32 32 34 35 34 33 32 30 27 26 26 26 27 28 29 30 30 30 29 29 29 29 29
14 16 19 21 22 23 25 26 28 29 29 30 30 31 32 32 32 33 32 32 32 33 35 35 34 33 30 28 27 27 27 27 28 29 29 29 29 28 28 28 28 28
15 18 20 21 22 23 25 26 27 28 28 29 29 30 30 31 32 32 32 32 31 32 34 36 35 33 32 30 29 28 28 28 28 28 28 28 28 26 26 27 26 26
17 19 20 21 22 24 25 26 27 27 27 28 28 29 29 30 30 30 31 32 32 31 33 36 35 33 32 31 28 28 29 28 28 27 27 28 27 26 25 26 26 26
18 19 20 22 23 24 25 25 25 26 26 26 27 29 29 29 30 30 30 31 31 31 32 35 37 34 31 30 28 28 29 29 29 28 28 28 27 26 25 25 26 26
18 19 21 22 23 23 24 24 24 25 25 24 25 27 29 29 29 30 30 30 30 31 30 33 36 35 31 30 29 28 28 29 30 30 30 29 27 26 26 26 27 28
17 19 20 21 22 22 22 23 24 24 24 24 24 25 27 28 28 30 31 30 29 30 29 30 34 35 33 30 29 27 27 29 30 30 31 30 29 29 30 30 31 32
17 18 19 19 20 21 21 22 23 23 24 24 24 25 26 28 28 28 30 31 29 30 30 29 32 34 33 30 28 27 27 28 30 30 31 32 32 33 34 34 36 37
Wind_Direction
79 76 73 71 68 66 65 64 62 61 59 56 53 51 48 47 45 43 42 39 35 32 29 26 22 19 16 14 13 11 10 10 8 7 6 4 1 359 356 351 346 339
79 76 73 69 65 61 58 57 57 56 54 51 49 46 44 43 40 37 34 32 29 25 23 19 15 13 9 6 4 2 360 359 357 356 355 354 351 350 348 345 343 340
77 74 69 63 59 55 52 50 49 48 45 42 39 36 34 33 30 27 24 20 18 14 11 9 6 3 359 356 354 353 351 349 348 346 343 343 342 340 339 336 334 332
74 68 64 57 53 50 46 44 43 41 37 33 30 27 24 22 18 15 12 8 5 2 359 357 354 352 350 347 345 343 342 341 340 338 335 333 333 332 331 330 327 325
73 67 62 55 51 47 43 42 39 36 32 28 23 20 17 14 9 5 1 358 355 352 349 347 346 345 344 343 342 341 339 337 336 334 331 328 327 326 325 324 322 320
70 63 57 51 48 45 41 38 34 27 24 21 16 11 8 5 0 356 352 348 346 343 341 339 338 339 339 339 339 339 339 338 337 335 331 327 325 322 321 321 319 316
65 56 51 44 40 37 33 30 24 18 15 11 7 3 359 355 351 349 346 343 340 339 337 335 333 333 334 333 332 332 332 334 334 333 331 328 325 321 320 320 317 313
60 47 39 32 28 25 21 19 14 9 5 0 357 354 351 348 345 344 342 340 338 336 335 333 332 332 333 332 331 330 328 329 330 330 328 326 324 320 318 317 314 310
46 36 28 22 18 14 9 6 2 358 355 351 348 345 343 342 340 339 337 336 335 334 333 332 332 333 334 333 332 330 329 327 327 326 324 322 320 317 316 315 312 307
29 23 18 14 10 6 0 356 352 349 347 344 342 341 340 339 337 336 335 334 333 333 332 332 332 333 332 330 329 328 326 324 323 322 319 317 314 312 312 311 310 307
9 6 4 3 1 358 353 347 344 341 340 339 338 337 337 335 334 334 334 333 332 331 331 330 331 331 328 326 326 325 323 320 318 315 312 310 307 306 305 305 304 302
345 346 348 349 348 348 345 340 335 333 333 334 334 333 332 331 331 331 331 330 329 329 328 328 328 327 325 324 324 324 322 317 313 310 306 304 301 300 299 297 296 296
325 329 332 335 335 336 335 331 328 326 327 328 329 328 328 328 328 328 328 327 327 326 327 326 326 325 324 324 325 323 320 316 312 309 305 302 299 297 295 293 291 290
301 309 314 320 323 326 327 325 322 322 323 324 325 325 325 326 326 326 325 325 325 325 325 325 324 323 324 325 324 322 319 315 311 308 304 302 300 297 295 293 291 289
285 296 305 312 317 320 322 321 320 321 322 323 324 324 324 324 324 324 324 323 324 323 323 323 322 322 323 324 323 320 317 313 309 306 304 302 301 299 297 295 293 291
280 292 301 307 312 316 317 318 318 319 320 321 322 322 323 323 323 324 324 323 323 322 321 321 320 319 320 320 319 316 313 311 307 304 303 302 300 298 298 297 296 294
276 287 297 303 308 312 314 315 315 317 318 319 319 320 320 321 322 323 324 323 322 320 319 319 317 317 318 318 316 314 312 309 306 303 302 300 298 297 298 298 299 298
273 285 294 301 306 309 311 313 314 315 317 317 317 318 318 319 320 321 322 322 320 318 317 317 315 316 318 317 314 313 311 307 303 301 300 298 297 298 298 299 301 301
272 284 292 298 302 305 307 309 311 313 314 315 315 316 316 316 317 318 319 320 319 317 316 315 315 316 318 317 313 311 310 306 301 297 296 294 295 296 297 298 300 300
274 284 291 295 299 302 303 306 309 310 312 313 313 313 314 315 316 317 318 318 317 317 316 314 315 317 319 317 312 310 308 305 301 296 294 292 292 294 295 295 297 297
279 287 292 295 298 301 303 306 309 309 310 311 311 312 312 313 314 315 316 316 316 316 315 314 315 318 319 317 312 310 308 305 300 296 294 292 292 292 293 293 295 295
285 289 293 296 299 302 305 307 308 308 309 311 310 309 310 311 312 314 314 314 315 316 315 314 314 318 319 315 310 308 307 304 300 297 294 293 293 293 293 293 293 293
288 291 294 297 300 303 305 306 307 307 308 309 309 308 309 311 312 313 313 313 313 314 315 313 314 317 317 312 307 307 306 303 299 297 295 294 293 293 293 293 292 292
287 291 295 297 299 302 304 304 304 304 306 308 308 308 309 311 312 311 310 311 312 313 314 312 311 314 315 309 305 305 303 301 299 297 295 294 293 293 292 292 291 291
286 289 292 296 298 300 301 301 302 303 305 307 307 307 308 309 309 309 308 309 310 311 312 310 309 313 315 310 305 303 302 300 299 296 294 293 293 292 292 291 288 287
284 287 290 293 296 298 299 299 300 303 305 307 307 308 308 307 307 307 306 307 309 310 310 309 309 312 314 311 304 301 301 299 297 295 293 292 291 290 289 287 285 285